This is the latest recevied weather packets stored in our database for station/object KP4FJC. If no packets are shown the sender has not sent any weather packets the latest 1 day(s).
| Time | Temp. | Humidity | Pressure | Rain* | Wind** | Luminosity | Snow |
|---|---|---|---|---|---|---|---|
| 1778037423 | 26.11° C | 85% | 1019.2 hPa | 0 mm | 0.45 m/s, 132° | 0 W/m² | - |
| 1778037120 | 26.11° C | 85% | 1019.2 hPa | 0 mm | 0 m/s | 0 W/m² | - |
| 1778036819 | 26.11° C | 85% | 1019.3 hPa | 0 mm | 0 m/s | 0 W/m² | - |
| 1778036516 | 26.11° C | 84% | 1019.2 hPa | 0 mm | 0 m/s | 0 W/m² | - |
| 1778036212 | 26.11° C | 84% | 1019.1 hPa | 0 mm | 0.45 m/s, 59° | 0 W/m² | - |
| 1778035909 | 26.11° C | 84% | 1019.3 hPa | 0 mm | 0.45 m/s, 80° | 0 W/m² | - |
| 1778035606 | 26.11° C | 84% | 1019.3 hPa | 0 mm | 0 m/s | 0 W/m² | - |
| 1778035302 | 26.11° C | 84% | 1019.3 hPa | 0 mm | 0 m/s | 0 W/m² | - |
| 1778034998 | 26.11° C | 84% | 1019.4 hPa | 0 mm | 0.45 m/s, 60° | 0 W/m² | - |
| 1778034696 | 26.11° C | 83% | 1019.2 hPa | 0 mm | 0.45 m/s, 73° | 0 W/m² | - |
| 1778034393 | 26.11° C | 83% | 1019.3 hPa | 0 mm | 0.89 m/s, 82° | 0 W/m² | - |
| 1778034090 | 26.11° C | 83% | 1019.3 hPa | 0 mm | 0.45 m/s, 59° | 0 W/m² | - |
| 1778033788 | 26.11° C | 83% | 1019.2 hPa | 0 mm | 0 m/s | 0 W/m² | - |
| 1778033484 | 26.11° C | 83% | 1019 hPa | 0 mm | 0.89 m/s, 63° | 0 W/m² | - |
| 1778033182 | 26.67° C | 82% | 1019.1 hPa | 0 mm | 0.45 m/s, 45° | 0 W/m² | - |
| 1778032874 | 26.67° C | 82% | 1019 hPa | 0 mm | 0 m/s | 0 W/m² | - |
| 1778032572 | 26.67° C | 82% | 1018.8 hPa | 0 mm | 0.45 m/s, 73° | 0 W/m² | - |
| 1778032268 | 26.67° C | 81% | 1019.2 hPa | 0 mm | 0 m/s | 0 W/m² | - |
| 1778031966 | 26.67° C | 81% | 1019.1 hPa | 0 mm | 0.45 m/s, 58° | 0 W/m² | - |
| 1778031661 | 26.67° C | 81% | 1019 hPa | 0 mm | 0.89 m/s, 93° | 0 W/m² | - |
| 1778031359 | 26.67° C | 81% | 1019.2 hPa | 0 mm | 0.89 m/s, 62° | 0 W/m² | - |
| 1778031056 | 26.67° C | 80% | 1018.8 hPa | 0 mm | 0 m/s | 0 W/m² | - |
| 1778030752 | 26.67° C | 80% | 1019.1 hPa | 0 mm | 0.45 m/s, 65° | 0 W/m² | - |
| 1778030449 | 26.67° C | 79% | 1018.8 hPa | 0 mm | 0.89 m/s, 160° | 0 W/m² | - |
| 1778030147 | 26.67° C | 79% | 1018.8 hPa | 0 mm | 0 m/s | 0 W/m² | - |
* Rain latest hour (hover to see other rain measurements)
** Current wind speed in m/s (hover to see current wind gust speed)